[[{"header":{"parameterUnit":"m.s-1","parameterCategory":2,"la1":30.2991,"la2":30.254,"lo1":-89.0895,"lo2":-89.0444,"dy":0.0017,"dx":0.0017,"nx":28,"ny":28,"refTime":"2023-09-24T09:00:00:Z","depth":"0","parameterNumber":2,"parameterNumberName":"U-component_of_CURRENTS"},"data":[0,0,0,0,0,0,0,0,0,0,0,0,0,0,0,0,0,0,0,0,0,0,0,0,0,0,0,0,0,0,0,0,0,0,0,0,0,0,0,0,0,0,0,0,0,0,0,0,0,0,0,0,0,0,0,0,0,0,0.3782,0.3783,0,0.3845,0.3846,0.3846,0.3851,0.3851,0.385,0.385,0.3849,0.385,0.385,0,0,0,0,0,0,0,0,0,0,0,0,0,0.3735,0.3735,0.3782,0.3784,0.3785,0.3845,0.3846,0.3846,0.3851,0.385,0.385,0.385,0.3849,0.385,0.385,0,0,0,0,0,0,0,0,0,0,0,0,0,0.3769,0.3736,0.3782,0.3797,0.3799,0.3845,0.3846,0.3846,0.3851,0.385,0.385,0.385,0.3849,0.385,0.385,0.3863,0,0,0.3851,0.3852,0,0,0,0,0,0,0,0,0.3767,0.377,0.3794,0.3796,0.3799,0.3843,0.383,0.385,0.3851,0.3827,0.385,0.3849,0.3844,0.3845,0.3853,0.3863,0.3863,0.3851,0.3852,0.3852,0.3852,0,0,0,0,0,0,0,0.3764,0.3768,0.3803,0.3795,0.3798,0.3825,0.3828,0.3834,0.3833,0.3829,0.3831,0.3844,0.3845,0.3853,0.3853,0.3863,0.3851,0.3852,0.3852,0.3852,0.3968,0.3971,0,0,0,0,0,0,0.3762,0.3765,0.3801,0.3806,0.3786,0.3826,0.383,0.3826,0.3835,0.3837,0.3845,0.3844,0.3852,0.3853,0.3853,0.3947,0.3852,0.3852,0.3852,0.3966,0.3969,0.3972,0,0,0,0,0,0,0.376,0.3764,0.3799,0.3791,0.3798,0.3827,0.3824,0.3828,0.3844,0.3848,0.3848,0.3858,0.3852,0.3853,0.3884,0.3944,0.3852,0.3853,0.3962,0.3967,0.3971,0.4084,0,0,0,0,0,0,0.3758,0.3762,0.376,0.379,0.3798,0.3845,0.3825,0.383,0.3855,0.3855,0.386,0.3859,0.3852,0.3884,0.3885,0.3943,0.3853,0.3959,0.3964,0.3969,0.4076,0.4091,0.4104,0,0,0,0,0,0.3756,0.3768,0.3759,0.3764,0.3793,0.3847,0.3854,0.3871,0.3856,0.3879,0.3885,0.3859,0.3919,0.3886,0.3887,0.3946,0.3956,0.3963,0.3969,0.407,0.4088,0.4104,0,0,0,0,0,0,0.3751,0.377,0.3762,0.3778,0.3815,0.385,0.3877,0.3878,0.39,0.3897,0.3885,0.3887,0.3944,0.3926,0.3891,0.3997,0.3937,0.3944,0.4015,0.4031,0.4045,0.407,0.3854,0,0,0,0,0,0.3747,0.3757,0.3786,0.3802,0.3821,0.3845,0.3867,0.3879,0.3904,0.3912,0.3919,0.3934,0.3971,0.3983,0.4005,0.405,0.4054,0.4093,0.4107,0.4118,0.4141,0.4181,0.42,0.3993,0.3993,0.3993,0,0,0.3754,0.3763,0.3771,0.3802,0.3828,0.3874,0.3857,0.3902,0.3944,0.3908,0.3965,0.398,0.3994,0.4061,0.4084,0.4051,0.4186,0.4126,0.4136,0.4153,0.419,0.421,0.4228,0.3997,0.3996,0.3996,0,0,0.3781,0.378,0.38,0.3836,0.3879,0.3902,0.3917,0.3959,0.3984,0.4034,0.4038,0.4095,0.4117,0.4169,0.4189,0.429,0.426,0.4289,0.4376,0.4415,0.4432,0.4447,0.4504,0.4523,0.4293,0.4293,0.4293,0,0.3787,0.3807,0.3821,0.386,0.3895,0.3917,0.3963,0.4004,0.4052,0.4083,0.4064,0.4161,0.4182,0.4283,0.4339,0.4326,0.4335,0.4309,0.4433,0.4448,0.4461,0.4515,0.4535,0.4299,0.4299,0.4298,0.4297,0,0.3828,0.3856,0.3883,0.3928,0.3971,0.402,0.4075,0.4122,0.4143,0.4177,0.427,0.431,0.4362,0.4398,0.4406,0.4527,0.4501,0.4446,0.4388,0.4489,0.454,0.4558,0.4308,0.4306,0.4304,0.4303,0,0,0.3806,0.3891,0.3898,0.3938,0.4008,0.4053,0.4135,0.4215,0.4268,0.4327,0.4401,0.4512,0.452,0.4548,0.457,0.4635,0.4768,0.4594,0.4593,0.4647,0.4867,0.4729,0.4735,0.4717,0.472,0.4723,0.4873,0,0.3831,0.3913,0.3943,0.4036,0.4092,0.4142,0.4217,0.4294,0.4347,0.4428,0.4499,0.4574,0.4577,0.4613,0.4683,0.4749,0.4817,0.4734,0.4764,0.4767,0.4627,0.4752,0.4455,0.4551,0.489,0.4893,0.4895,0,0.3849,0.3908,0.3994,0.41,0.4125,0.418,0.4292,0.4362,0.4477,0.4516,0.4597,0.4633,0.478,0.4735,0.4902,0.4839,0.4875,0.4915,0.4918,0.4762,0.4662,0.4501,0.4571,0.4447,0.4923,0.4921,0.4919,0,0.3837,0.394,0.401,0.4048,0.4169,0.4215,0.4278,0.4387,0.4464,0.4574,0.4634,0.4749,0.4836,0.4898,0.4989,0.4948,0.5144,0.5075,0.499,0.4981,0.4722,0.4683,0.4666,0.5179,0.5178,0.5178,0.5177,0,0.3854,0.3916,0.4011,0.4057,0.4158,0.4221,0.4327,0.4401,0.451,0.4605,0.4676,0.4769,0.488,0.4989,0.5031,0.5081,0.5168,0.5046,0.5017,0.4755,0.4719,0.4589,0.4551,0.5183,0.5182,0.5181,0.518,0,0.3858,0.391,0.4007,0.412,0.4162,0.4236,0.4372,0.4441,0.4533,0.4659,0.47,0.4842,0.497,0.5062,0.5194,0.5137,0.5027,0.5171,0.487,0.4801,0.4542,0.4521,0.4375,0.4263,0.5097,0.5094,0.5092,0,0.3884,0.3934,0.4052,0.4106,0.4162,0.4273,0.4347,0.4456,0.4538,0.4695,0.4764,0.4911,0.4974,0.5111,0.5048,0.507,0.4975,0.4802,0.466,0.4523,0.448,0.4356,0.4265,0.439,0.4382,0.4376,0.4371,0,0.3937,0.396,0.4015,0.4134,0.4214,0.4306,0.4418,0.4481,0.4596,0.4661,0.4745,0.4785,0.4884,0.4747,0.476,0.4731,0.4521,0.4671,0.4596,0.3995,0.3791,0.3667,0.4334,0.4315,0.4321,0.4325,0.4328,0.433,0.3946,0.3981,0.4031,0.4127,0.4225,0.4279,0.4253,0.436,0.4412,0.439,0.4601,0.45,0.4459,0.4404,0.4356,0.406,0.4163,0.3886,0.3904,0.3818,0.3588,0.415,0.404,0.4043,0.4047,0.405,0.4052,0,0.3886,0.3918,0.4025,0.4073,0.4098,0.4173,0.4236,0.413,0.4062,0.4129,0.4116,0.3956,0.3791,0.3732,0.3491,0.3307,0.3166,0.3224,0.2982,0.296,0.3503,0.3346,0.2994,0.2994,0.2994,0.2994,0.2994,0.2994,0.3835,0.3849,0.3885,0.3889,0.391,0.3799,0.3741,0.3635,0.362,0.3408,0.3247,0.3265,0.3302,0.3142,0.2882,0.2792,0.2623,0.2434,0.2574,0.2945,0.3008,0.3067,0.2911,0.2473,0.2473,0.1832,0.1827,0.1823]},{"header":{"parameterUnit":"m.s-1","parameterCategory":2,"la1":30.2991,"la2":30.254,"lo1":-89.0895,"lo2":-89.0444,"dy":0.0017,"dx":0.0017,"nx":28,"ny":28,"refTime":"2023-09-24T09:00:00:Z","depth":"0","parameterNumber":3,"parameterNumberName":"V-component_of_CURRENTS"},"data":[0,0,0,0,0,0,0,0,0,0,0,0,0,0,0,0,0,0,0,0,0,0,0,0,0,0,0,0,0,0,0,0,0,0,0,0,0,0,0,0,0,0,0,0,0,0,0,0,0,0,0,0,0,0,0,0,0,0,0.0294,0.0294,0,0.0258,0.0257,0.0257,0.0222,0.0222,0.0221,0.0221,0.0144,0.0143,0.0141,0,0,0,0,0,0,0,0,0,0,0,0,0,0.0293,0.0294,0.0294,0.0294,0.0293,0.0258,0.0257,0.0257,0.0222,0.0222,0.0221,0.0221,0.0145,0.0143,0.0141,0,0,0,0,0,0,0,0,0,0,0,0,0,0.0279,0.0294,0.0294,0.0272,0.027,0.0258,0.0257,0.0256,0.0222,0.0222,0.0221,0.022,0.0145,0.0143,0.0141,0.0137,0,0,0.0133,0.0132,0,0,0,0,0,0,0,0,0.028,0.0279,0.0276,0.0274,0.0271,0.0244,0.0229,0.0215,0.0222,0.024,0.0221,0.022,0.0175,0.017,0.0164,0.0133,0.013,0.0133,0.0131,0.013,0.0129,0,0,0,0,0,0,0,0.0281,0.028,0.0279,0.0275,0.0273,0.025,0.0248,0.0226,0.021,0.0238,0.0236,0.0233,0.0173,0.0167,0.0162,0.0129,0.0133,0.0131,0.0129,0.0128,0.0092,0.0092,0,0,0,0,0,0,0.0289,0.0281,0.028,0.0278,0.0275,0.0251,0.0248,0.0253,0.0211,0.0204,0.0233,0.0231,0.0171,0.0165,0.0159,0.017,0.013,0.0128,0.0126,0.0091,0.0092,0.0093,0,0,0,0,0,0,0.029,0.029,0.0282,0.0278,0.0276,0.0252,0.0257,0.0253,0.0247,0.0208,0.02,0.0232,0.017,0.0163,0.0142,0.0165,0.0127,0.0124,0.0091,0.0092,0.0092,0.0179,0,0,0,0,0,0,0.029,0.029,0.0297,0.028,0.0277,0.0284,0.0258,0.0252,0.0246,0.0243,0.0204,0.0196,0.0169,0.0146,0.014,0.0161,0.0122,0.009,0.0091,0.0092,0.0176,0.0183,0.0189,0,0,0,0,0,0.029,0.0305,0.0297,0.0297,0.0286,0.0285,0.0282,0.0262,0.0246,0.0252,0.0221,0.0198,0.0148,0.0145,0.0137,0.0158,0.009,0.0091,0.0092,0.0173,0.0181,0.0189,0,0,0,0,0,0,0.0306,0.0302,0.0294,0.0306,0.0299,0.028,0.0284,0.0267,0.0248,0.0243,0.0202,0.0193,0.0184,0.0156,0.0153,0.015,0.0116,0.0116,0.018,0.0188,0.0195,0.0236,0.012,0,0,0,0,0,0.0313,0.0327,0.0314,0.0325,0.0326,0.0305,0.0301,0.0288,0.0269,0.026,0.0232,0.0202,0.0184,0.0174,0.015,0.0147,0.0144,0.0156,0.0162,0.0168,0.0196,0.0204,0.0215,0.0097,0.0097,0.0097,0,0,0.0321,0.0323,0.0328,0.033,0.0324,0.0336,0.0302,0.0304,0.0313,0.0254,0.0256,0.0223,0.0187,0.0186,0.018,0.0165,0.02,0.017,0.0176,0.02,0.0207,0.0219,0.0229,0.0098,0.0097,0.0097,0,0,0.0352,0.0349,0.0372,0.0373,0.0371,0.0361,0.0364,0.0348,0.0341,0.0333,0.0298,0.0286,0.0246,0.0239,0.0226,0.0256,0.0233,0.0238,0.031,0.0318,0.0329,0.0338,0.0352,0.0362,0.0245,0.0245,0.0245,0,0.0362,0.0389,0.0377,0.04,0.0408,0.0377,0.0402,0.0394,0.0371,0.0378,0.0344,0.0322,0.0281,0.0304,0.0308,0.0276,0.0275,0.0284,0.033,0.0339,0.0347,0.0359,0.0369,0.0249,0.0249,0.0248,0.0248,0,0.0411,0.0431,0.0446,0.0468,0.0473,0.049,0.048,0.0484,0.0465,0.0457,0.0468,0.0423,0.0418,0.0396,0.0357,0.0398,0.0377,0.0337,0.0317,0.0365,0.0373,0.0382,0.0256,0.0254,0.0253,0.0252,0,0,0.0441,0.0475,0.0482,0.0506,0.0512,0.0526,0.0548,0.0567,0.06,0.0571,0.0619,0.0575,0.0559,0.0545,0.0504,0.0505,0.0544,0.0449,0.0448,0.0477,0.0572,0.0522,0.0526,0.0509,0.0511,0.0513,0.0556,0,0.0484,0.0547,0.0547,0.0601,0.0632,0.0621,0.0652,0.0664,0.0663,0.0699,0.0673,0.0692,0.0614,0.0621,0.0612,0.0567,0.0571,0.0537,0.0509,0.0509,0.0471,0.0536,0.0519,0.0554,0.0564,0.0566,0.0567,0,0.0531,0.0571,0.0635,0.0685,0.0699,0.0723,0.0779,0.0803,0.0839,0.0843,0.0862,0.0839,0.0856,0.0771,0.0749,0.0731,0.0665,0.062,0.0619,0.0555,0.0476,0.0505,0.0568,0.0425,0.058,0.0579,0.0578,0,0.0571,0.063,0.0686,0.0703,0.0754,0.0783,0.0812,0.0851,0.0897,0.0948,0.0995,0.0991,0.102,0.0945,0.0848,0.0803,0.0819,0.074,0.0641,0.0637,0.061,0.06,0.0547,0.0727,0.0727,0.0727,0.0726,0,0.0618,0.0663,0.0712,0.0747,0.083,0.084,0.0923,0.0956,0.1019,0.1115,0.1081,0.1167,0.1064,0.1052,0.0924,0.0832,0.0881,0.0685,0.0655,0.0637,0.0629,0.049,0.041,0.0728,0.0728,0.0728,0.0727,0,0.0653,0.0681,0.0757,0.0825,0.0851,0.0914,0.0996,0.1066,0.1114,0.1246,0.1276,0.1322,0.1326,0.1207,0.1114,0.0954,0.0764,0.0791,0.0782,0.0748,0.0483,0.0409,0.0337,0.0285,0.0693,0.0692,0.0692,0,0.0685,0.0725,0.0821,0.0876,0.0908,0.0989,0.1058,0.1114,0.1201,0.1356,0.1446,0.1493,0.1563,0.1409,0.1155,0.0952,0.0792,0.0753,0.0648,0.0497,0.0392,0.0326,0.0284,0.0652,0.0651,0.065,0.065,0,0.0751,0.0777,0.0843,0.0951,0.103,0.1128,0.1231,0.1313,0.142,0.155,0.1733,0.1804,0.1676,0.1485,0.1176,0.1007,0.0643,0.0727,0.0584,0.0379,0.0296,0.0222,0.0595,0.0643,0.0643,0.0644,0.0644,0.0644,0.081,0.0861,0.0941,0.1042,0.1141,0.1273,0.1365,0.1498,0.1674,0.1889,0.1937,0.2069,0.1742,0.1342,0.1095,0.0593,0.0607,0.0408,0.0341,0.0297,0.0212,0.0568,0.056,0.056,0.056,0.056,0.056,0,0.0884,0.0933,0.1028,0.116,0.1279,0.1312,0.1491,0.1603,0.1833,0.2035,0.2192,0.2088,0.1691,0.1256,0.0577,0.0243,0.0141,0.008,-0.0012,-0.0028,0.0306,0.0264,0.0177,0.0177,0.0177,0.0177,0.0177,0.0177,0.0931,0.1017,0.1053,0.1254,0.135,0.151,0.1616,0.1803,0.1967,0.2194,0.2266,0.2294,0.1935,0.0797,0.0049,-0.0104,-0.0294,-0.0348,-0.0422,-0.0212,-0.0186,-0.0162,-0.0221,-0.0408,-0.0409,-0.0728,-0.0731,-0.0734]}],[{"header":{"parameterUnit":"m.s-1","parameterCategory":2,"la1":30.2991,"la2":30.254,"lo1":-89.0895,"lo2":-89.0444,"dy":0.0017,"dx":0.0017,"nx":28,"ny":28,"refTime":"2023-09-24T09:00:00:Z","depth":"2","parameterNumber":2,"parameterNumberName":"U-component_of_CURRENTS"},"data":[0,0,0,0,0,0,0,0,0,0,0,0,0,0,0,0,0,0,0,0,0,0,0,0,0,0,0,0,0,0,0,0,0,0,0,0,0,0,0,0,0,0,0,0,0,0,0,0,0,0,0,0,0,0,0,0,0,0,0.2855,0.2856,0,0.2856,0.2856,0.2855,0.2842,0.2842,0.2842,0.2842,0.2874,0.2875,0.2876,0,0,0,0,0,0,0,0,0,0,0,0,0,0.2805,0.2806,0.2855,0.2856,0.2856,0.2856,0.2856,0.2855,0.2842,0.2842,0.2842,0.2842,0.2874,0.2875,0.2876,0,0,0,0,0,0,0,0,0,0,0,0,0,0.2815,0.2806,0.2855,0.2852,0.2852,0.2856,0.2856,0.2855,0.2842,0.2842,0.2842,0.2842,0.2874,0.2875,0.2876,0.2885,0,0,0.288,0.2881,0,0,0,0,0,0,0,0,0.2814,0.2816,0.2852,0.2852,0.2852,0.2852,0.285,0.2868,0.2842,0.2842,0.2842,0.2842,0.2872,0.2874,0.2868,0.2887,0.2888,0.2881,0.2881,0.2882,0.2882,0,0,0,0,0,0,0,0.2814,0.2816,0.2852,0.2853,0.2853,0.2838,0.2839,0.2853,0.2855,0.2842,0.2842,0.2848,0.2872,0.2867,0.2869,0.2889,0.288,0.2882,0.2882,0.2883,0.2988,0.299,0,0,0,0,0,0,0.2823,0.2816,0.2852,0.2852,0.2837,0.2839,0.2841,0.2849,0.2854,0.2856,0.2848,0.2847,0.2865,0.2868,0.287,0.2958,0.2882,0.2883,0.2884,0.2986,0.2988,0.2991,0,0,0,0,0,0,0.2822,0.2827,0.2852,0.2837,0.2839,0.2841,0.285,0.2849,0.287,0.2859,0.286,0.2873,0.2865,0.2868,0.2913,0.2956,0.2884,0.2885,0.2984,0.2987,0.2989,0.3084,0,0,0,0,0,0,0.2821,0.2826,0.2844,0.2838,0.2841,0.2874,0.2851,0.285,0.2874,0.2874,0.2881,0.2882,0.2865,0.2912,0.2915,0.2957,0.2886,0.2981,0.2985,0.2989,0.3078,0.309,0.31,0,0,0,0,0,0.2819,0.2844,0.2844,0.2849,0.2862,0.2876,0.2876,0.2874,0.2876,0.2891,0.2904,0.2883,0.2937,0.2915,0.2918,0.2961,0.2979,0.2984,0.2988,0.3074,0.3088,0.31,0,0,0,0,0,0,0.2824,0.2845,0.2845,0.2874,0.2884,0.2875,0.2895,0.2895,0.2915,0.2923,0.2911,0.2914,0.2965,0.2954,0.293,0.3002,0.2954,0.296,0.3018,0.3031,0.3042,0.3081,0.2887,0,0,0,0,0,0.2835,0.287,0.2872,0.2901,0.2908,0.2908,0.2918,0.2918,0.293,0.2939,0.2947,0.2961,0.2982,0.3001,0.3008,0.3056,0.307,0.3085,0.3096,0.3105,0.3139,0.3191,0.321,0.3005,0.3005,0.3005,0,0,0.2844,0.2865,0.2882,0.2906,0.2914,0.2924,0.2914,0.2941,0.2961,0.2942,0.2987,0.2999,0.3002,0.3048,0.3071,0.305,0.3171,0.311,0.3118,0.3148,0.3198,0.3218,0.3236,0.3008,0.3008,0.3007,0,0,0.2868,0.2899,0.2923,0.2939,0.2964,0.2963,0.2979,0.299,0.3011,0.305,0.3048,0.3096,0.3114,0.3137,0.3146,0.3225,0.3222,0.3227,0.3322,0.3371,0.3389,0.3405,0.3452,0.3471,0.3238,0.3238,0.3238,0,0.2883,0.2903,0.2932,0.2953,0.2972,0.2984,0.3,0.3023,0.3051,0.3084,0.3076,0.3149,0.3156,0.3229,0.327,0.3251,0.3285,0.327,0.3387,0.3403,0.3417,0.3461,0.3481,0.3243,0.3242,0.3242,0.3241,0,0.2899,0.2927,0.2948,0.2979,0.3006,0.303,0.3058,0.3092,0.312,0.3144,0.323,0.3256,0.33,0.3317,0.3328,0.3443,0.3435,0.3389,0.3356,0.3444,0.3484,0.3503,0.325,0.3248,0.3247,0.3246,0,0,0.2902,0.295,0.2956,0.2973,0.3024,0.304,0.3097,0.3145,0.3194,0.3245,0.3319,0.3394,0.343,0.3449,0.3473,0.3549,0.3685,0.3544,0.3544,0.3595,0.3819,0.3646,0.365,0.367,0.3674,0.3677,0.3807,0,0.2904,0.2938,0.2968,0.3004,0.3023,0.3068,0.3114,0.3172,0.3238,0.3314,0.3385,0.3462,0.3471,0.3523,0.36,0.3664,0.3742,0.3656,0.3724,0.3726,0.3565,0.3668,0.3371,0.3448,0.3825,0.3828,0.3831,0,0.2895,0.2927,0.2965,0.3016,0.3029,0.306,0.3152,0.3206,0.3323,0.3376,0.3482,0.3537,0.3679,0.3657,0.3826,0.3779,0.3829,0.3871,0.3874,0.3699,0.3589,0.342,0.3468,0.3862,0.386,0.3857,0.3855,0,0.2868,0.2917,0.295,0.2972,0.3038,0.3077,0.3123,0.3235,0.3299,0.3454,0.352,0.3653,0.3748,0.3833,0.3914,0.3901,0.4075,0.4032,0.3922,0.391,0.3662,0.362,0.4156,0.4155,0.4155,0.4155,0.4154,0,0.2855,0.2878,0.2943,0.2965,0.3006,0.3079,0.3159,0.3223,0.3351,0.3447,0.3572,0.3667,0.3812,0.3908,0.3957,0.399,0.4092,0.3977,0.3942,0.3683,0.3643,0.3996,0.3976,0.416,0.4159,0.4158,0.4157,0,0.2827,0.2865,0.2903,0.2976,0.2997,0.3046,0.3148,0.3199,0.3348,0.3486,0.3545,0.3724,0.3851,0.3931,0.4076,0.4034,0.4075,0.4051,0.3734,0.3659,0.3879,0.3863,0.3977,0.3972,0.3968,0.3965,0.3962,0,0.2795,0.2821,0.2902,0.2928,0.2968,0.3042,0.3069,0.3181,0.3257,0.3507,0.3558,0.3743,0.3805,0.3912,0.3886,0.3895,0.4002,0.362,0.3525,0.3912,0.3868,0.3857,0.3846,0.3253,0.3245,0.3238,0.3232,0,0.2755,0.2809,0.2865,0.2899,0.293,0.2981,0.3058,0.3057,0.3225,0.3344,0.3494,0.3571,0.3685,0.355,0.3547,0.3515,0.3585,0.3477,0.3987,0.3314,0.323,0.3186,0.3199,0.3171,0.3177,0.3182,0.3185,0.3187,0.2738,0.2748,0.2815,0.284,0.29,0.2904,0.2868,0.2943,0.2997,0.3081,0.3264,0.3275,0.3321,0.3146,0.3045,0.2985,0.3247,0.3116,0.3138,0.3167,0.303,0.294,0.2803,0.2807,0.281,0.2813,0.2815,0,0.2661,0.2683,0.2719,0.2736,0.2763,0.2839,0.2841,0.2746,0.2715,0.2819,0.2889,0.2655,0.2555,0.2605,0.2422,0.2411,0.24,0.2311,0.2286,0.2349,0.2405,0.2228,0.179,0.1786,0.1783,0.178,0,0,0.2621,0.261,0.26,0.2589,0.2619,0.255,0.251,0.2407,0.2405,0.2288,0.2282,0.2413,0.2528,0.2122,0.2067,0.1901,0.2106,0.1819,0.2649,0.2684,0.2735,0.2882,0.2682,0,0,0,0,0]},{"header":{"parameterUnit":"m.s-1","parameterCategory":2,"la1":30.2991,"la2":30.254,"lo1":-89.0895,"lo2":-89.0444,"dy":0.0017,"dx":0.0017,"nx":28,"ny":28,"refTime":"2023-09-24T09:00:00:Z","depth":"2","parameterNumber":3,"parameterNumberName":"V-component_of_CURRENTS"},"data":[0,0,0,0,0,0,0,0,0,0,0,0,0,0,0,0,0,0,0,0,0,0,0,0,0,0,0,0,0,0,0,0,0,0,0,0,0,0,0,0,0,0,0,0,0,0,0,0,0,0,0,0,0,0,0,0,0,0,0.0156,0.0156,0,0.0121,0.0121,0.012,0.0086,0.0086,0.0086,0.0085,0.0027,0.0026,0.0025,0,0,0,0,0,0,0,0,0,0,0,0,0,0.0145,0.0145,0.0156,0.0156,0.0156,0.0121,0.0121,0.012,0.0087,0.0086,0.0086,0.0085,0.0028,0.0026,0.0025,0,0,0,0,0,0,0,0,0,0,0,0,0,0.0133,0.0146,0.0157,0.0135,0.0133,0.0121,0.0121,0.012,0.0087,0.0086,0.0086,0.0085,0.0028,0.0026,0.0024,0.0024,0,0,0.0019,0.0018,0,0,0,0,0,0,0,0,0.0134,0.0133,0.0139,0.0137,0.0134,0.0108,0.0095,0.0087,0.0087,0.0103,0.0085,0.0085,0.0053,0.0049,0.0043,0.0021,0.0018,0.0019,0.0018,0.0017,0.0016,0,0,0,0,0,0,0,0.0135,0.0134,0.0142,0.0139,0.0136,0.0111,0.0109,0.0093,0.0081,0.0102,0.01,0.0097,0.0052,0.0045,0.0041,0.0017,0.0019,0.0017,0.0016,0.0015,-0.0013,-0.0012,0,0,0,0,0,0,0.0144,0.0136,0.0143,0.0141,0.0134,0.0112,0.0109,0.0117,0.0081,0.0076,0.0098,0.0096,0.0048,0.0043,0.0039,0.0045,0.0017,0.0015,0.0014,-0.0013,-0.0013,-0.0012,0,0,0,0,0,0,0.0144,0.0146,0.0144,0.0137,0.0135,0.0113,0.0121,0.0116,0.0111,0.0078,0.0072,0.0097,0.0048,0.0042,0.0027,0.0042,0.0014,0.0013,-0.0013,-0.0013,-0.0012,0.0051,0,0,0,0,0,0,0.0144,0.0146,0.0151,0.0138,0.0136,0.0143,0.0121,0.0116,0.011,0.0107,0.0076,0.007,0.0047,0.003,0.0025,0.0039,0.0011,-0.0014,-0.0013,-0.0013,0.0049,0.0054,0.0058,0,0,0,0,0,0.0144,0.0159,0.0152,0.0153,0.0146,0.0144,0.0141,0.0121,0.0111,0.0113,0.009,0.0071,0.0031,0.0029,0.0023,0.0037,-0.0014,-0.0013,-0.0013,0.0047,0.0053,0.0058,0,0,0,0,0,0,0.0156,0.0157,0.0149,0.0163,0.0155,0.0139,0.0141,0.0127,0.0111,0.0108,0.0075,0.0068,0.006,0.0039,0.0037,0.003,0.0005,0.0005,0.0052,0.0058,0.0063,0.0094,0.001,0,0,0,0,0,0.0162,0.0176,0.0166,0.0178,0.0178,0.016,0.0155,0.0144,0.0129,0.0122,0.0098,0.0075,0.006,0.0051,0.0032,0.0029,0.0017,0.0033,0.0038,0.0043,0.0063,0.0055,0.0061,-0.001,-0.001,-0.001,0,0,0.0169,0.0173,0.0179,0.0181,0.0175,0.0185,0.0156,0.0158,0.0166,0.0118,0.0119,0.0091,0.0062,0.0058,0.0053,0.0042,0.0054,0.0044,0.0048,0.0066,0.0056,0.0063,0.007,-0.0009,-0.0009,-0.0009,0,0,0.0197,0.0196,0.0216,0.0216,0.0213,0.0206,0.021,0.0195,0.0187,0.0183,0.0152,0.0138,0.0109,0.0097,0.0086,0.0108,0.0079,0.0094,0.0146,0.0137,0.0143,0.0149,0.0136,0.0139,0.0097,0.0097,0.0098,0,0.0203,0.0233,0.022,0.0239,0.0248,0.022,0.0245,0.0234,0.0214,0.022,0.0191,0.0167,0.0134,0.0145,0.0146,0.0122,0.0108,0.0127,0.0145,0.015,0.0155,0.014,0.0144,0.0101,0.01,0.01,0.01,0,0.0247,0.0267,0.0281,0.0301,0.0305,0.0323,0.031,0.0313,0.0299,0.0287,0.0289,0.0244,0.0236,0.0215,0.0185,0.0202,0.0179,0.0152,0.0135,0.0166,0.0148,0.015,0.0105,0.0104,0.0103,0.0102,0,0,0.0275,0.0308,0.0313,0.0338,0.0343,0.0358,0.0375,0.0391,0.0418,0.0382,0.0416,0.037,0.0347,0.0334,0.0293,0.0277,0.0281,0.0231,0.0229,0.0228,0.026,0.0206,0.0203,0.0255,0.0256,0.0257,0.0233,0,0.0316,0.0375,0.0375,0.0428,0.0461,0.0449,0.0474,0.0481,0.0476,0.0497,0.0457,0.0466,0.0392,0.0395,0.0367,0.031,0.0292,0.0291,0.0223,0.0222,0.0177,0.0205,0.0233,0.0211,0.0235,0.0236,0.0236,0,0.0359,0.04,0.0463,0.0515,0.0528,0.0548,0.0599,0.062,0.0633,0.0631,0.0627,0.0594,0.0577,0.0506,0.0432,0.0434,0.0358,0.0302,0.0299,0.0234,0.0172,0.0184,0.0214,0.024,0.0239,0.0239,0.0239,0,0.0403,0.046,0.052,0.0535,0.0584,0.0611,0.0639,0.0662,0.0709,0.0726,0.0765,0.0716,0.0722,0.0621,0.0491,0.047,0.0401,0.0358,0.0239,0.0233,0.0238,0.0232,0.0311,0.0311,0.0311,0.0311,0.0311,0,0.0451,0.0497,0.0545,0.0579,0.0662,0.0669,0.0757,0.0772,0.0822,0.0905,0.0844,0.0896,0.0752,0.0688,0.0544,0.0401,0.0441,0.0263,0.023,0.0258,0.0254,0.0263,0.0257,0.031,0.031,0.031,0.0311,0,0.0485,0.0514,0.0592,0.0658,0.0685,0.0745,0.0844,0.0915,0.0943,0.1052,0.1072,0.105,0.0966,0.0794,0.064,0.0491,0.0343,0.0277,0.0312,0.0283,0.0169,0.0168,0.0161,0.0159,0.0157,0.0156,0.0155,0,0.0512,0.0555,0.0653,0.0713,0.0744,0.0839,0.092,0.0975,0.106,0.1156,0.1223,0.1177,0.1157,0.0893,0.0631,0.0374,0.0332,0.022,0.0178,0.0189,0.0157,0.0158,0.0159,0.021,0.0209,0.0209,0.0209,0,0.057,0.0599,0.0664,0.0791,0.0881,0.0999,0.1109,0.1202,0.1294,0.1371,0.146,0.1447,0.1209,0.0961,0.0595,0.042,0.0257,0.0199,0.0227,0.0231,0.0229,0.02,0.02,0.0204,0.0204,0.0205,0.0205,0.0205,0.0615,0.067,0.0761,0.0879,0.0992,0.1146,0.1247,0.1376,0.1521,0.1622,0.161,0.1565,0.1294,0.0818,0.0522,0.0211,0.0233,0.0113,0.0118,0.0122,0.0119,0.0114,0.0066,0.0066,0.0066,0.0065,0.0065,0,0.0678,0.0741,0.0851,0.0995,0.1124,0.1176,0.1367,0.146,0.1629,0.1696,0.172,0.1435,0.1165,0.084,0.0391,0.0118,0.0109,0.0015,0.0077,0.0084,0.009,0.0086,0.0024,0.0023,0.0022,0.0021,0,0,0.0713,0.0818,0.0871,0.1082,0.1186,0.135,0.146,0.1585,0.1661,0.1707,0.1663,0.1583,0.1238,0.0889,0.0536,0.0283,0.0237,0.0222,0.0288,0.0411,0.0419,0.0182,0.0189,0,0,0,0,0]}],[{"header":{"parameterUnit":"m.s-1","parameterCategory":2,"la1":30.2991,"la2":30.254,"lo1":-89.0895,"lo2":-89.0444,"dy":0.0017,"dx":0.0017,"nx":28,"ny":28,"refTime":"2023-09-24T09:00:00:Z","depth":"4","parameterNumber":2,"parameterNumberName":"U-component_of_CURRENTS"},"data":[0,0,0,0,0,0,0,0,0,0,0,0,0,0,0,0,0,0,0,0,0,0,0,0,0,0,0,0,0,0,0,0,0,0,0,0,0,0,0,0,0,0,0,0,0,0,0,0,0,0,0,0,0,0,0,0,0,0,0.1495,0.1495,0,0.1538,0.1539,0.154,0.159,0.159,0.1591,0.1591,0.1663,0.1664,0.1666,0,0,0,0,0,0,0,0,0,0,0,0,0,0.1486,0.1486,0.1495,0.1495,0.1495,0.1538,0.1539,0.154,0.1589,0.159,0.1591,0.1591,0.1663,0.1664,0.1666,0,0,0,0,0,0,0,0,0,0,0,0,0,0.1508,0.1486,0.1495,0.1524,0.1527,0.1538,0.1539,0.154,0.1589,0.159,0.1591,0.1592,0.1662,0.1664,0.1666,0.1663,0,0,0.1673,0.1673,0,0,0,0,0,0,0,0,0.1506,0.1508,0.1519,0.1522,0.1525,0.1557,0.1562,0.1582,0.1589,0.1568,0.1591,0.1592,0.1628,0.1633,0.1642,0.1666,0.1669,0.1673,0.1674,0.1675,0.1676,0,0,0,0,0,0,0,0.1505,0.1507,0.1514,0.1519,0.1523,0.1545,0.1549,0.1566,0.1595,0.157,0.1573,0.1574,0.163,0.164,0.1644,0.167,0.1673,0.1675,0.1676,0.1677,0.1766,0.1767,0,0,0,0,0,0,0.1492,0.1505,0.1513,0.1515,0.1515,0.1544,0.1549,0.1548,0.1595,0.1601,0.1573,0.1576,0.1636,0.1642,0.1647,0.1727,0.1675,0.1677,0.1678,0.1765,0.1766,0.1767,0,0,0,0,0,0,0.1492,0.1492,0.1511,0.151,0.1513,0.1543,0.1542,0.1548,0.1596,0.1596,0.1605,0.1618,0.1637,0.1644,0.1688,0.1727,0.1678,0.168,0.1763,0.1765,0.1767,0.1835,0,0,0,0,0,0,0.1491,0.1492,0.1508,0.1509,0.1513,0.1538,0.1541,0.1548,0.1592,0.1597,0.1637,0.1642,0.1638,0.1685,0.169,0.1729,0.1681,0.1762,0.1764,0.1766,0.1831,0.1839,0.1845,0,0,0,0,0,0.1491,0.15,0.1509,0.1511,0.1527,0.1538,0.1544,0.1569,0.1594,0.1616,0.1643,0.1643,0.1702,0.1688,0.1693,0.1734,0.1761,0.1764,0.1766,0.1828,0.1837,0.1845,0,0,0,0,0,0,0.1501,0.1505,0.1515,0.1525,0.1542,0.1546,0.1575,0.1592,0.1633,0.165,0.1659,0.1665,0.1716,0.1713,0.1698,0.1764,0.1731,0.1735,0.1776,0.1785,0.1792,0.1786,0.1683,0,0,0,0,0,0.1509,0.1522,0.1527,0.1539,0.1554,0.1576,0.1593,0.1607,0.163,0.1651,0.1676,0.1702,0.1724,0.1747,0.176,0.1801,0.181,0.1829,0.1836,0.1842,0.184,0.1909,0.1923,0.1775,0.1775,0.1775,0,0,0.1517,0.152,0.153,0.1544,0.1566,0.1583,0.1591,0.1623,0.1641,0.1651,0.1705,0.1729,0.1739,0.1781,0.1804,0.179,0.1885,0.1845,0.185,0.1845,0.1914,0.1928,0.1941,0.1777,0.1777,0.1776,0,0,0.1524,0.1547,0.156,0.1575,0.1604,0.1614,0.1633,0.166,0.1686,0.1727,0.174,0.1787,0.1826,0.1839,0.185,0.1902,0.1917,0.1919,0.1957,0.2026,0.2039,0.205,0.2067,0.208,0.1926,0.1926,0.1926,0,0.154,0.1545,0.1568,0.1582,0.1599,0.1634,0.1653,0.1676,0.1714,0.1741,0.1753,0.1836,0.1847,0.19,0.1917,0.192,0.1951,0.1928,0.2037,0.2048,0.2059,0.2074,0.2087,0.193,0.1929,0.1929,0.1929,0,0.154,0.1563,0.1577,0.1605,0.163,0.1653,0.1679,0.1722,0.1765,0.1787,0.1863,0.189,0.1947,0.1958,0.1955,0.204,0.2033,0.2038,0.2019,0.2079,0.2089,0.2102,0.1935,0.1934,0.1933,0.1932,0,0,0.1539,0.1571,0.1585,0.1597,0.1645,0.1658,0.1708,0.1754,0.1803,0.1855,0.1922,0.1968,0.2016,0.203,0.2052,0.2101,0.2196,0.2112,0.2114,0.2133,0.2333,0.2187,0.2186,0.2245,0.2247,0.225,0.2305,0,0.1543,0.1558,0.1585,0.162,0.163,0.1684,0.1726,0.1776,0.1837,0.191,0.1961,0.2034,0.2034,0.2091,0.2145,0.2195,0.2235,0.2178,0.2267,0.2268,0.2137,0.2198,0.2259,0.2314,0.2317,0.2319,0.2321,0,0.1538,0.1546,0.1572,0.1617,0.1636,0.1675,0.1766,0.1807,0.1908,0.1965,0.2061,0.211,0.2203,0.2193,0.2314,0.2293,0.2317,0.2335,0.2338,0.2185,0.2146,0.2245,0.2343,0.2341,0.234,0.2338,0.2337,0,0.1499,0.1543,0.1562,0.1575,0.1633,0.1682,0.1738,0.1837,0.189,0.2025,0.21,0.2205,0.2287,0.2353,0.2405,0.2389,0.2514,0.2494,0.2369,0.2358,0.2442,0.2429,0.2562,0.2562,0.2562,0.2562,0.2562,0,0.1466,0.1484,0.1554,0.1559,0.1604,0.167,0.1758,0.1827,0.1954,0.2027,0.2145,0.2221,0.2343,0.2423,0.2445,0.2449,0.256,0.2377,0.2373,0.2465,0.2454,0.245,0.2436,0.2564,0.2563,0.2563,0.2563,0,0.1397,0.1442,0.1465,0.1548,0.158,0.1619,0.1754,0.181,0.1959,0.2067,0.2121,0.2272,0.2382,0.2459,0.2557,0.249,0.2508,0.2472,0.2551,0.2551,0.2286,0.2275,0.2332,0.2328,0.2324,0.2321,0.2318,0,0.1339,0.1351,0.1447,0.1463,0.1505,0.1587,0.1639,0.1792,0.1858,0.2074,0.2106,0.2268,0.2352,0.2373,0.2461,0.2487,0.2455,0.2427,0.2353,0.2277,0.2269,0.2264,0.2258,0.2312,0.2311,0.231,0.2309,0,0.1238,0.1309,0.1336,0.1376,0.1432,0.1475,0.1575,0.1622,0.1803,0.196,0.2055,0.2117,0.2224,0.2284,0.2324,0.2334,0.243,0.2387,0.2393,0.2323,0.2254,0.2248,0.2247,0.2296,0.2298,0.2299,0.23,0,0.1185,0.1188,0.1253,0.1273,0.1325,0.134,0.1415,0.1505,0.1597,0.185,0.1875,0.2055,0.2202,0.2205,0.2245,0.2248,0.2204,0.211,0.213,0.2145,0.2059,0.1941,0.189,0,0,0,0,0,0.1127,0.1123,0.1134,0.1159,0.1202,0.1241,0.1348,0.1437,0.1638,0.1656,0.1767,0.1861,0.1941,0.2024,0.199,0.2144,0.2197,0.2091,0.2095,0.2224,0.2239,0.2154,0,0,0,0,0,0,0.1093,0.1106,0.1102,0.1051,0.1057,0.1097,0.117,0.13,0.1326,0.1538,0.1594,0.1745,0.1848,0.1956,0.1959,0.1982,0.1942,0.2202,0.2197,0.2215,0.2229,0.2241,0.2159,0,0,0,0,0]},{"header":{"parameterUnit":"m.s-1","parameterCategory":2,"la1":30.2991,"la2":30.254,"lo1":-89.0895,"lo2":-89.0444,"dy":0.0017,"dx":0.0017,"nx":28,"ny":28,"refTime":"2023-09-24T09:00:00:Z","depth":"4","parameterNumber":3,"parameterNumberName":"V-component_of_CURRENTS"},"data":[0,0,0,0,0,0,0,0,0,0,0,0,0,0,0,0,0,0,0,0,0,0,0,0,0,0,0,0,0,0,0,0,0,0,0,0,0,0,0,0,0,0,0,0,0,0,0,0,0,0,0,0,0,0,0,0,0,0,0.016,0.016,0,0.0146,0.0146,0.0145,0.0128,0.0128,0.0128,0.0127,0.0103,0.0102,0.0102,0,0,0,0,0,0,0,0,0,0,0,0,0,0.0139,0.0139,0.016,0.016,0.0159,0.0146,0.0146,0.0145,0.0128,0.0128,0.0127,0.0127,0.0103,0.0102,0.0102,0,0,0,0,0,0,0,0,0,0,0,0,0,0.0139,0.014,0.016,0.0149,0.0148,0.0146,0.0146,0.0145,0.0128,0.0128,0.0127,0.0127,0.0103,0.0102,0.0102,0.0106,0,0,0.01,0.01,0,0,0,0,0,0,0,0,0.0139,0.014,0.0151,0.015,0.0149,0.0138,0.0129,0.0132,0.0128,0.0136,0.0127,0.0127,0.0114,0.0112,0.0111,0.0105,0.0104,0.01,0.01,0.0099,0.0099,0,0,0,0,0,0,0,0.0139,0.014,0.0154,0.0151,0.015,0.0134,0.0134,0.0129,0.0127,0.0135,0.0134,0.0132,0.0113,0.0111,0.011,0.0104,0.01,0.0099,0.0099,0.0099,0.0098,0.0098,0,0,0,0,0,0,0.0143,0.014,0.0155,0.0154,0.0143,0.0135,0.0135,0.0142,0.0127,0.0125,0.0133,0.0132,0.0113,0.0111,0.0109,0.0122,0.0099,0.0099,0.0098,0.0098,0.0098,0.0099,0,0,0,0,0,0,0.0143,0.0145,0.0155,0.0146,0.0146,0.0136,0.0144,0.0142,0.0142,0.0126,0.0123,0.0135,0.0112,0.011,0.011,0.012,0.0098,0.0098,0.0097,0.0098,0.0098,0.0141,0,0,0,0,0,0,0.0143,0.0145,0.0152,0.0147,0.0147,0.0158,0.0144,0.0142,0.0142,0.014,0.0127,0.0124,0.0112,0.0111,0.0109,0.0119,0.0097,0.0097,0.0098,0.0098,0.0139,0.0143,0.0146,0,0,0,0,0,0.0142,0.0154,0.0153,0.0154,0.0157,0.0158,0.0157,0.0148,0.0143,0.0146,0.0138,0.0125,0.0114,0.0111,0.0109,0.0119,0.0097,0.0097,0.0098,0.0138,0.0142,0.0146,0,0,0,0,0,0,0.0148,0.0154,0.0152,0.0165,0.0163,0.0155,0.0159,0.0152,0.0149,0.015,0.0132,0.0129,0.013,0.0119,0.0117,0.0119,0.0102,0.0102,0.0133,0.0137,0.014,0.015,0.0097,0,0,0,0,0,0.0154,0.0166,0.0164,0.0175,0.0177,0.0169,0.0169,0.0165,0.016,0.0158,0.0146,0.0137,0.0132,0.0131,0.0122,0.0128,0.01,0.0131,0.0135,0.0138,0.0144,0.0109,0.011,0.0101,0.0101,0.0101,0,0,0.016,0.0164,0.0171,0.0177,0.0177,0.0188,0.0168,0.0175,0.0185,0.0157,0.0165,0.0148,0.0136,0.0139,0.0139,0.0132,0.0124,0.0139,0.0142,0.0146,0.011,0.0111,0.0112,0.0102,0.0102,0.0101,0,0,0.0179,0.0183,0.0199,0.0203,0.0207,0.0204,0.0208,0.0203,0.0202,0.0208,0.0189,0.0179,0.0173,0.0164,0.016,0.0178,0.0142,0.0174,0.0203,0.017,0.017,0.017,0.013,0.0126,0.0178,0.0178,0.0178,0,0.0184,0.021,0.0203,0.022,0.0231,0.0215,0.0236,0.0234,0.0228,0.023,0.0217,0.0202,0.0187,0.0192,0.0197,0.0187,0.0158,0.0189,0.0174,0.0174,0.0173,0.0132,0.0127,0.018,0.018,0.018,0.018,0,0.0217,0.0238,0.0249,0.0269,0.0275,0.0293,0.029,0.0295,0.029,0.028,0.0279,0.0254,0.0246,0.0236,0.0224,0.0216,0.0193,0.018,0.0164,0.0176,0.0132,0.0127,0.0183,0.0183,0.0182,0.0181,0,0,0.0234,0.0268,0.0273,0.0297,0.0308,0.0321,0.0338,0.0349,0.0365,0.0342,0.0354,0.0333,0.0309,0.0303,0.0279,0.0249,0.0214,0.0217,0.0214,0.0178,0.0131,0.0127,0.012,0.0195,0.0195,0.0194,0.01,0,0.0266,0.0315,0.032,0.0368,0.0395,0.0393,0.0412,0.0416,0.0411,0.0412,0.0379,0.0379,0.0339,0.0339,0.0301,0.024,0.0201,0.024,0.0124,0.012,0.0116,0.0114,0.0192,0.0096,0.0094,0.0093,0.0092,0,0.0298,0.0332,0.0388,0.0433,0.0444,0.0466,0.05,0.0519,0.0509,0.0502,0.0483,0.045,0.0414,0.0377,0.027,0.0295,0.0219,0.0161,0.0156,0.0135,0.0106,0.0081,0.0081,0.0082,0.0083,0.0084,0.0085,0,0.0325,0.0378,0.0431,0.0448,0.0491,0.0517,0.0539,0.0545,0.0576,0.0563,0.0572,0.0509,0.0492,0.0389,0.0271,0.0269,0.0141,0.0124,0.0042,0.004,0.0053,0.0054,0.004,0.004,0.004,0.0041,0.0041,0,0.0359,0.04,0.0452,0.0484,0.055,0.0561,0.0625,0.063,0.0651,0.0687,0.0627,0.0629,0.0494,0.0406,0.0285,0.0148,0.0149,0.0046,0.0018,0.0072,0.0076,0.0048,0.005,0.0037,0.0038,0.0039,0.0039,0,0.0374,0.0412,0.0477,0.0539,0.0568,0.0615,0.0694,0.0736,0.0744,0.0789,0.0791,0.0719,0.0604,0.0454,0.0282,0.0181,0.0042,-0.0011,0.0055,0.0032,-0.0044,-0.0038,-0.0108,-0.0109,-0.0109,-0.011,-0.011,0,0.0387,0.0427,0.0519,0.057,0.0604,0.0683,0.0743,0.0782,0.0831,0.0844,0.0865,0.0772,0.0702,0.0455,0.0289,0.0053,0.0018,-0.006,-0.0051,-0.0037,-0.0058,-0.0051,-0.0045,-0.0112,-0.0112,-0.0112,-0.0112,0,0.0411,0.0445,0.0496,0.0602,0.0679,0.0774,0.0858,0.0904,0.0951,0.0956,0.0924,0.0798,0.0663,0.0461,0.0277,0.0109,-0.001,-0.0068,-0.0068,-0.0061,-0.0043,-0.0061,-0.0054,-0.0115,-0.0114,-0.0114,-0.0114,0,0.0425,0.0461,0.0534,0.0627,0.0728,0.0832,0.0882,0.0939,0.0987,0.0997,0.098,0.0829,0.0739,0.049,0.0322,0.0155,0.011,0.0052,0.0045,0.0046,0.0118,0.0164,0.0133,0,0,0,0,0,0.044,0.0483,0.056,0.0666,0.0763,0.0828,0.0945,0.0989,0.1038,0.1022,0.1005,0.0875,0.0627,0.0521,0.0352,0.0301,0.0078,0.0098,0.0007,-0.0129,-0.0126,-0.0068,0,0,0,0,0,0,0.0446,0.0515,0.0551,0.0678,0.0754,0.0872,0.0951,0.0989,0.0988,0.1,0.0873,0.0815,0.0576,0.071,0.0337,0.0289,0.0206,-0.0015,-0.0019,-0.0131,-0.0128,-0.0126,-0.0065,0,0,0,0,0]}]]